Home > Weather > Managua > Past weeks

Flag for Nicaragua Past Weather in Managua, Nicaragua — Yesterday and Last 2 Weeks

Now
77 °F

Passing clouds.


Feels Like: 79 °F
Forecast: 79 / 90 °F
Wind: 7 mph from East

Location: Managua A. C. Sandino

Current Time: Jun 27, 2016 at 12:01:45 AM

Latest Report: Jun 26, 2016 at 11:00 PM


Visibility: N/A

Pressure: 29.86 "Hg

Humidity: 79%

Dew Point: 70 °F

Location of ManaguaLocation

Past Weather in Managua — Graph

°F

Managua Temperature Yesterday

Maximum temperature yesterday: 91 °F (at 12:00 PM)
Minimum temperature yesterday: 77 °F (at 12:00 AM)
Average temperature yesterday: 83 °F

High & Low Weather Summary for the Past Weeks

 TemperatureHumidityPressure
High93 °F (Jun 13, 4:00 PM)100% (Jun 13, 2:00 AM)30.01 "Hg (Jun 13, 2:00 AM)
Low73 °F (Jun 13, 2:00 AM)44% (Jun 13, 4:00 PM)29.77 "Hg (Jun 16, 4:00 PM)
Average82 °F76%29.87 "Hg
* Reported Jun 11 10:00 PM — Jun 26 10:00 PM, Managua, Weather by CustomWeather, © 2016

Note: Actual official high and low records may vary slightly from our data, if they occured in-between our weather recording intervals... More about our weather records

Advertising

Managua Weather History for the Previous 24 Hours

Scroll right to see more
 ConditionsComfort  
Time TempWeatherWind HumidityBarometerVisibility
10:00 PM
Sun, Jun 26
79 °FPassing clouds.7 mph74%29.86 "HgN/A
9:00 PM81 °FPassing clouds.9 mph70%29.89 "HgN/A
8:00 PM81 °FPassing clouds.9 mph74%29.86 "HgN/A
7:00 PM82 °FPassing clouds.7 mph70%29.83 "HgN/A
6:00 PM84 °FPartly sunny.7 mph62%29.80 "HgN/A
5:00 PM86 °FPartly sunny.9 mph59%29.80 "HgN/A
4:00 PM88 °FPartly sunny.14 mph55%29.80 "HgN/A
3:00 PM90 °FScattered clouds.18 mph52%29.80 "HgN/A
2:00 PM91 °FHot.8 mph52%29.80 "HgN/A
1:00 PM91 °FPassing clouds.18 mph52%29.80 "HgN/A
12:00 PM91 °FScattered clouds.18 mph56%29.83 "HgN/A
11:00 AM88 °FPassing clouds.18 mph66%29.86 "HgN/A
10:00 AM86 °FScattered clouds.21 mph66%29.86 "HgN/A
9:00 AM86 °FPassing clouds.16 mph62%29.86 "HgN/A
8:00 AM84 °FScattered clouds.12 mph70%29.86 "HgN/A
7:00 AM81 °FScattered clouds.9 mph79%29.86 "HgN/A
6:00 AM77 °FScattered clouds.5 mph89%29.83 "HgN/A
5:00 AM77 °FPassing clouds.5 mph89%29.80 "HgN/A
4:00 AM77 °FPassing clouds.No wind89%29.83 "HgN/A
3:00 AM79 °FPassing clouds.7 mph84%29.83 "HgN/A
2:00 AM77 °FPassing clouds.5 mph89%29.83 "HgN/A
1:00 AM77 °FPassing clouds.5 mph89%29.86 "HgN/A
12:00 AM77 °FPassing clouds.No wind89%29.86 "HgN/A
Weather by CustomWeather, © 2016

See weather overviewHow to use our weather pages